Location: Unspecified
(47.9769°N, 0.0000°E)
Time: 01:16:33
(UTC+00:00)

deb Atmosphere 2 - Visible Passes

Search period start: 04 April 2026 00:00
Search period end: 14 April 2026 00:00
Orbit: 813 x 825 km, 98.8° (Epoch: 28 March)

Date Brightness Start Highest point End Pass type
(mag) Time Alt. Az. Time Alt. Az. Time Alt. Az.
4 Apr ? 04:22:41 10° NNE 04:27:31 34° E 04:32:18 10° SSE visible
5 Apr ? 04:01:54 10° NE 04:06:04 23° E 04:10:13 10° SE visible
6 Apr ? 03:41:31 10° NE 03:44:33 15° E 03:47:34 10° ESE visible
8 Apr ? 04:37:34 10° NNE 04:42:40 44° E 04:47:44 10° S visible
9 Apr ? 04:16:37 10° NE 04:21:16 30° E 04:25:53 10° SSE visible
10 Apr ? 03:55:54 10° NE 03:59:48 20° E 04:03:40 10° SE visible
11 Apr ? 03:35:44 10° ENE 03:38:15 13° E 03:40:44 10° ESE visible
13 Apr ? 04:31:24 10° NNE 04:36:24 39° E 04:41:21 10° SSE visible
